Wind_Speed
51 52 53 55 57 59 61 63 64 65 66 68 71 72 73 73 74 74 73 72 71 71 70 69 68 68 67 67 67 67 66 65 64 64 64 64 65 65
54 55 56 58 59 61 62 64 65 66 66 67 69 70 70 70 69 69 69 68 68 67 66 65 64 64 63 62 62 61 60 59 58 58 57 58 58 59
56 57 58 59 60 61 62 63 64 65 65 65 66 67 66 66 65 65 65 63 62 60 59 57 56 55 54 54 53 52 52 52 52 51 51 51 52 53
57 58 58 58 59 59 60 61 61 62 62 61 61 62 62 62 61 61 59 58 56 54 53 51 49 48 47 46 45 45 45 45 45 45 45 46 47 48
57 57 57 57 57 57 58 58 59 59 59 58 58 57 57 57 56 54 53 51 50 48 46 45 43 42 41 41 41 41 41 41 41 41 41 42 43 44
55 55 55 55 55 55 55 55 56 55 55 55 53 52 51 50 48 47 45 44 43 42 41 40 39 39 38 38 39 39 38 38 37 37 38 39 39 40
54 54 53 53 53 53 53 52 53 52 51 49 47 45 44 43 42 40 39 38 38 38 37 37 36 36 36 36 36 35 35 35 35 35 35 35 36 36
51 51 51 51 50 50 49 49 48 47 44 42 40 38 37 36 35 35 35 35 33 34 33 32 32 32 32 32 31 31 30 31 31 31 32 32 33 33
49 49 48 48 46 46 45 44 42 40 37 35 33 32 31 31 31 31 31 31 30 29 28 28 28 28 28 28 27 27 26 27 28 28 28 29 29 30
46 45 44 43 42 40 38 36 34 32 29 28 27 27 27 28 28 28 28 27 27 27 26 25 25 25 25 24 23 22 22 23 23 24 25 26 26 27
42 41 39 37 35 33 31 28 26 24 23 23 23 24 25 25 26 26 26 26 25 26 25 24 23 22 22 21 19 19 19 19 20 21 22 23 23 24
37 35 32 29 27 25 22 20 19 19 19 20 22 23 23 23 24 25 25 25 24 23 23 22 20 19 19 19 18 16 15 15 16 17 18 19 20 20
29 26 23 20 19 17 15 15 14 15 17 18 19 20 21 23 23 24 25 24 23 22 20 19 19 18 17 16 16 14 13 13 13 13 14 15 16 16
19 17 14 13 11 11 11 11 12 14 15 16 18 19 20 22 23 23 23 23 22 20 19 18 17 16 15 14 13 12 11 10 10 10 10 11 12 13
12 10 8 7 7 7 8 9 11 13 14 15 17 19 20 21 22 22 22 21 20 20 19 18 17 16 15 14 12 11 10 9 8 7 7 8 8 9
5 4 3 4 5 5 7 9 10 12 14 16 17 19 19 20 21 21 21 21 21 20 20 19 18 17 16 15 14 12 10 8 6 5 5 4 4 5
1 2 4 5 6 7 9 10 12 13 15 16 18 19 20 20 21 21 21 21 21 21 20 20 19 19 18 18 16 14 11 9 7 5 3 1 1 3
5 5 7 8 8 9 10 12 13 14 15 16 17 18 19 20 21 21 21 21 21 21 21 21 21 20 20 19 18 16 13 10 8 6 4 4 4 5
7 8 9 10 11 12 12 13 14 15 15 16 17 18 19 20 20 21 21 21 21 21 21 22 22 22 22 21 19 18 15 13 11 9 9 8 8 8
10 11 12 12 13 14 14 15 15 16 16 17 17 18 18 19 20 21 21 21 22 22 22 22 22 23 23 23 21 19 18 16 14 13 12 12 12 13
12 13 13 14 14 15 15 15 16 16 17 18 18 19 19 19 19 20 20 21 21 22 22 22 23 24 25 25 23 22 20 19 18 16 16 16 16 16
13 14 14 14 14 15 15 16 16 17 18 18 19 19 20 20 20 20 20 20 20 21 22 22 23 24 24 24 24 23 23 22 21 20 19 19 18 19
14 14 13 13 14 14 15 15 16 17 18 19 19 20 20 20 20 20 20 20 20 20 21 22 22 23 23 24 25 25 24 24 24 23 21 21 21 21
Wind_Direction
291 290 289 287 287 286 286 285 285 284 285 286 286 286 287 287 287 287 288 288 287 286 285 284 283 281 280 278 276 274 273 271 269 267 265 262 260 257
290 289 288 287 287 286 286 286 286 286 286 286 286 287 288 288 288 288 288 288 288 287 286 285 284 283 281 279 277 275 272 270 268 266 264 261 258 255
290 289 289 288 288 288 287 287 288 288 288 288 288 288 289 289 289 289 289 289 288 288 287 286 285 284 282 280 278 275 272 270 267 265 263 260 257 255
291 291 290 290 290 289 289 289 289 290 290 290 290 290 290 290 290 290 290 290 289 288 287 286 285 283 282 280 278 276 273 270 267 265 262 260 258 255
292 292 292 292 292 291 291 291 291 291 291 291 291 291 291 291 291 291 292 291 291 290 289 287 286 284 282 280 278 276 273 270 267 264 262 260 257 255
293 293 293 293 293 293 292 292 292 292 293 293 293 293 293 293 293 294 294 294 294 293 292 290 288 286 283 281 279 277 274 271 268 265 262 260 257 255
293 293 293 294 294 293 293 293 293 294 294 295 295 295 295 296 297 298 299 299 298 296 295 293 291 289 287 284 281 278 275 271 267 264 262 259 257 255
294 294 294 294 294 294 294 295 296 296 297 297 297 298 299 301 303 304 304 303 301 300 299 297 295 293 291 288 284 280 276 271 267 264 261 259 256 254
294 294 295 295 295 295 296 297 298 298 299 300 301 302 305 306 308 309 310 310 309 305 304 302 300 299 296 293 288 282 278 273 267 263 260 257 254 253
295 296 296 296 296 297 298 299 300 301 303 306 308 310 312 314 316 317 318 317 314 312 312 310 306 305 302 299 294 286 280 275 269 264 259 257 255 254
296 297 297 297 298 298 299 301 303 306 309 312 315 318 320 322 323 324 324 323 320 317 316 314 312 311 309 306 301 293 286 279 272 267 262 258 257 255
297 297 297 297 298 300 302 304 307 311 315 319 322 325 328 330 330 331 331 330 328 324 322 320 319 318 315 312 308 301 292 284 278 270 264 260 258 255
298 298 298 298 300 303 306 311 315 321 324 327 329 332 335 337 338 338 338 337 336 334 333 331 328 326 324 319 315 310 302 294 284 274 267 262 258 254
298 299 300 301 304 310 316 322 329 334 337 339 341 343 344 344 345 345 345 346 347 347 347 346 343 340 337 333 327 321 314 306 295 284 273 265 258 252
300 303 306 311 318 327 335 342 346 349 352 354 355 355 354 353 354 355 356 358 359 359 359 358 357 356 354 350 345 338 330 321 310 296 280 271 259 246
304 314 330 344 358 6 8 8 8 10 10 7 6 5 5 5 5 7 9 9 10 10 11 11 10 8 6 4 0 356 351 344 333 321 303 282 256 231
49 55 47 46 44 38 33 29 27 24 19 16 15 14 14 14 15 16 16 16 17 18 19 19 19 19 18 15 12 7 4 2 358 351 342 309 179 173
86 78 71 67 61 54 48 41 35 30 26 23 22 20 19 20 21 21 21 22 23 24 24 24 23 22 21 20 19 18 19 20 24 32 55 97 119 136
87 85 81 75 68 61 54 47 41 36 32 28 26 25 24 24 24 24 24 25 26 26 26 26 26 25 25 26 27 27 31 35 46 61 77 90 105 120
91 90 85 78 71 64 59 53 48 42 37 33 31 28 27 26 26 26 26 27 28 28 28 29 29 30 32 34 35 37 40 47 59 71 82 89 97 108
95 91 85 79 73 68 62 57 52 47 42 38 36 33 31 29 27 27 27 28 29 31 31 32 34 36 37 39 41 44 49 55 64 75 84 89 95 103
94 91 86 80 74 69 64 59 54 48 43 39 36 33 31 30 28 28 28 29 31 32 34 36 38 40 42 44 47 50 55 61 68 76 84 89 92 99
93 90 85 78 73 69 64 59 53 48 43 38 34 32 30 28 27 27 28 29 31 33 36 39 41 43 46 49 52 55 60 65 70 74 81 86 92 98
Height
5757 5753 5749 5744 5739 5735 5730 5725 5721 5718 5714 5706 5698 5691 5686 5680 5673 5668 5663 5657 5652 5647 5642 5639 5635 5631 5628 5625 5622 5621 5620 5620 5620 5621 5622 5625 5628 5632
5743 5739 5734 5729 5724 5719 5714 5708 5703 5699 5696 5689 5681 5674 5668 5662 5655 5650 5644 5639 5634 5628 5623 5619 5615 5611 5608 5604 5602 5600 5599 5599 5599 5600 5602 5604 5607 5610
5728 5724 5719 5714 5709 5703 5697 5692 5686 5680 5677 5672 5664 5657 5651 5645 5639 5632 5627 5621 5617 5611 5606 5601 5597 5593 5589 5586 5584 5582 5581 5581 5581 5582 5584 5586 5588 5592
5713 5708 5704 5699 5693 5687 5682 5676 5670 5664 5659 5655 5649 5642 5635 5628 5623 5617 5611 5605 5600 5596 5591 5586 5582 5578 5575 5572 5569 5567 5566 5565 5566 5567 5568 5570 5572 5575
5698 5693 5689 5684 5678 5672 5667 5661 5655 5649 5643 5638 5633 5626 5620 5613 5607 5602 5596 5590 5585 5581 5576 5572 5568 5565 5561 5558 5556 5554 5553 5552 5552 5553 5554 5556 5558 5560
5683 5679 5674 5669 5664 5658 5652 5646 5640 5635 5629 5623 5618 5612 5606 5599 5594 5588 5584 5578 5573 5568 5563 5559 5556 5552 5549 5546 5544 5542 5540 5540 5540 5540 5541 5543 5544 5546
5669 5664 5659 5655 5649 5644 5638 5632 5627 5621 5615 5610 5604 5599 5594 5588 5582 5577 5572 5567 5562 5556 5552 5548 5544 5541 5537 5534 5532 5530 5529 5528 5528 5528 5529 5531 5533 5535
5655 5651 5646 5641 5637 5630 5625 5619 5614 5608 5603 5598 5593 5588 5583 5578 5573 5567 5562 5557 5553 5548 5542 5538 5534 5530 5526 5523 5521 5519 5518 5517 5517 5517 5519 5520 5522 5524
5642 5637 5632 5628 5624 5618 5613 5608 5602 5597 5593 5589 5584 5580 5575 5571 5566 5560 5554 5548 5543 5538 5534 5530 5525 5522 5518 5514 5511 5510 5508 5507 5507 5508 5509 5510 5512 5514
5629 5625 5620 5616 5611 5607 5602 5598 5593 5589 5585 5581 5578 5573 5569 5564 5558 5553 5547 5542 5537 5531 5527 5523 5518 5514 5510 5507 5504 5502 5500 5499 5499 5499 5500 5502 5503 5505
5617 5614 5610 5605 5601 5597 5594 5590 5587 5583 5580 5576 5573 5568 5563 5558 5553 5548 5542 5537 5532 5526 5521 5517 5513 5508 5504 5501 5498 5495 5494 5493 5493 5493 5493 5494 5496 5497
5607 5603 5600 5597 5594 5590 5588 5585 5583 5580 5576 5573 5569 5564 5560 5554 5549 5544 5538 5532 5527 5522 5517 5512 5507 5504 5500 5496 5493 5491 5489 5488 5487 5487 5487 5488 5489 5490
5598 5595 5593 5591 5588 5586 5584 5582 5580 5577 5574 5570 5566 5562 5557 5552 5546 5540 5534 5528 5523 5517 5513 5508 5504 5500 5496 5493 5490 5487 5485 5484 5483 5482 5482 5482 5483 5484
5592 5590 5588 5587 5585 5584 5582 5580 5578 5575 5572 5568 5564 5559 5555 5550 5544 5538 5532 5526 5520 5515 5510 5506 5501 5498 5494 5491 5488 5485 5483 5481 5480 5479 5478 5478 5479 5480
5588 5587 5586 5585 5584 5583 5581 5579 5577 5574 5570 5567 5563 5558 5553 5548 5543 5537 5531 5526 5520 5515 5510 5505 5501 5497 5493 5490 5486 5483 5481 5479 5477 5476 5476 5476 5476 5477
5586 5585 5585 5584 5583 5582 5581 5579 5576 5573 5570 5566 5562 5558 5553 5548 5543 5538 5532 5527 5521 5516 5511 5506 5502 5498 5494 5490 5486 5483 5480 5478 5476 5475 5474 5474 5474 5475
5585 5585 5585 5584 5584 5582 5581 5579 5576 5574 5570 5567 5563 5559 5554 5550 5544 5539 5534 5529 5524 5519 5514 5509 5504 5500 5495 5491 5487 5484 5480 5478 5476 5474 5474 5473 5474 5474
5586 5586 5586 5585 5584 5583 5582 5580 5578 5575 5572 5569 5565 5561 5556 5552 5547 5542 5537 5532 5527 5522 5517 5512 5507 5503 5498 5493 5489 5485 5481 5478 5476 5475 5474 5474 5475 5476
5588 5588 5587 5587 5586 5585 5583 5581 5579 5577 5574 5571 5567 5563 5559 5554 5550 5545 5540 5535 5530 5525 5520 5516 5511 5506 5501 5497 5492 5488 5484 5481 5478 5477 5477 5477 5477 5478
5590 5590 5590 5589 5589 5587 5586 5584 5582 5579 5576 5573 5570 5566 5562 5557 5553 5548 5544 5539 5534 5529 5524 5520 5515 5510 5505 5501 5496 5492 5488 5485 5482 5481 5481 5481 5481 5482
5592 5593 5593 5592 5592 5590 5589 5587 5585 5582 5579 5576 5573 5569 5565 5561 5556 5552 5547 5543 5538 5534 5529 5524 5519 5515 5510 5505 5501 5498 5494 5490 5488 5487 5486 5487 5487 5488
5596 5596 5596 5596 5595 5594 5592 5590 5588 5586 5583 5580 5576 5572 5568 5564 5560 5555 5551 5547 5542 5538 5534 5529 5524 5520 5516 5512 5508 5504 5501 5498 5495 5494 5493 5494 5494 5495
5599 5600 5599 5599 5598 5597 5596 5594 5592 5589 5586 5583 5580 5576 5572 5568 5564 5559 5555 5551 5547 5543 5539 5534 5530 5527 5523 5519 5515 5512 5509 5506 5504 5503 5502 5501 5502 5503